Buenos Aires, Argentina

11:17 PM ART on August 25, 2016 (GMT -0300)
Jorge Newbery Aeroparque

Weather History for SABE - September, 2013

Change the Weather History Date:

Friday, September 20, 2013

  Actual Average Record
Temperature  
Mean Temperature 59 °F -  
Max Temperature 64 °F 68 °F 72 °F (2014)
Min Temperature 54 °F 54 °F 39 °F (1998)
Degree Days  
Heating Degree Days 6    
Growing Degree Days 9 (Base 50)    
Moisture  
Dew Point 47 °F    
Average Humidity 63    
Maximum Humidity 77    
Minimum Humidity 46    
Precipitation  
Precipitation 0.00 in 0.13 in - ()
Sea Level Pressure  
Sea Level Pressure 29.87 in    
Wind  
Wind Speed 10 mph ()    
Max Wind Speed 16 mph    
Max Gust Speed -    
Visibility 6.0 miles    
Events      
Averages and records for this station are not official NWS values.
T = Trace of Precipitation, MM = Missing Value Source: Averaged Metar Reports

Daily Weather History Graph

Daily Weather History Graph

Search for Another Location

Airport or City:

Trip Planner

Search our weather history database for the weather conditions in past years. The results will help you decide how hot, cold, wet, or windy it might be!

Date:

Astronomy

Sep. 20, 2013 Rise Set
Actual Time 6:45 AM ART 6:48 PM ART
Civil Twilight 6:20 AM ART 7:13 PM ART
Nautical Twilight 5:51 AM ART 7:43 PM ART
Astronomical Twilight 5:21 AM ART 8:12 PM ART
Moon 8:17 PM ART (9/20) 7:09 AM ART (9/20)
Length of Visible Light 12h 53m
Length of Day
12h 03m
Full, 98% of the Moon is Illuminated
Sep 20
Full
Sep 27
Last Quarter
Oct 4
New
Oct 11
First Quarter
Oct 18
Full

Hourly Weather History & Observations

Time (ART) Temp. Dew Point Humidity Pressure Visibility Wind Dir Wind Speed Gust Speed Precip Events Conditions
12:00 AM 59.0 °F 44.6 °F 59% 30.04 in - NNE 13.8 mph - N/A   Clear
1:00 AM 59.0 °F 42.8 °F 55% 30.04 in - North 13.8 mph - N/A   Clear
3:00 AM 58 °F 43 °F 46%  in 6 mi NNE 12.7 mph - -  
3:00 AM 57.2 °F 42.8 °F 59% 30.01 in - NNE 12.7 mph - N/A   Clear
4:00 AM 57.2 °F 41.0 °F 55% 29.98 in - NNE 15.0 mph - N/A   Clear
5:00 AM 55.4 °F 42.8 °F 63% 29.95 in - NNE 16.1 mph - N/A   Clear
6:00 AM 56 °F 43 °F 50% 29.96 in 6 mi North 16.1 mph - -   Clear
6:00 AM 55.4 °F 42.8 °F 63% 29.95 in - North 16.1 mph - N/A   Clear
7:00 AM 55.4 °F 42.8 °F 63% 29.95 in - North 9.2 mph - N/A   Clear
8:00 AM 55.4 °F 41.0 °F 58% 29.95 in - NNE 10.4 mph - N/A   Clear
9:00 AM 57 °F 46 °F 57% 29.93 in 6 mi NNE 13.8 mph - -   Overcast
9:00 AM 57.2 °F 46.4 °F 67% 29.92 in - NNE 13.8 mph - N/A   Clear
10:00 AM 57.2 °F 44.6 °F 63% 29.92 in - North 13.8 mph - N/A   Clear
11:00 AM 59.0 °F 46.4 °F 63% 29.89 in - North 9.2 mph - N/A   Clear
12:00 PM 60 °F 47 °F 53% 29.88 in 6 mi NE 4.6 mph - -   Scattered Clouds
12:00 PM 60.8 °F 48.2 °F 63% 29.86 in - NE 4.6 mph - N/A   Clear
1:00 PM 62.6 °F 50.0 °F 63% 29.83 in - NE 3.5 mph - N/A   Clear
2:00 PM 62.6 °F 50.0 °F 63% 29.80 in - NE 4.6 mph - N/A   Clear
3:00 PM 64 °F 50 °F 49% 29.77 in 6 mi NE 3.5 mph - -   Scattered Clouds
3:00 PM 62.6 °F 50.0 °F 63% 29.74 in - NE 3.5 mph - N/A   Clear
4:00 PM 64.4 °F 50.0 °F 59% 29.74 in - ENE 5.8 mph - N/A   Clear
5:00 PM 60.8 °F 51.8 °F 72% 29.74 in - East 8.1 mph - N/A   Clear
6:00 PM 60 °F 52 °F 68% 29.76 in 6 mi East 9.2 mph - -   Clear
6:00 PM 60.8 °F 51.8 °F 72% 29.74 in - East 9.2 mph - N/A   Clear
7:00 PM 59.0 °F 51.8 °F 77% 29.77 in - ESE 9.2 mph - N/A   Clear
8:00 PM 59.0 °F 50.0 °F 72% 29.80 in - East 6.9 mph - N/A   Clear
9:00 PM 58 °F 50 °F 67% 29.80 in 6 mi ESE 6.9 mph - -   Partly Cloudy
9:00 PM 59.0 °F 50.0 °F 72% 29.80 in - ESE 6.9 mph - N/A   Clear
10:00 PM 57.2 °F 50.0 °F 77% 29.80 in - ESE 6.9 mph - N/A   Clear
11:00 PM 57.2 °F 50.0 °F 77% 29.80 in - ESE 4.6 mph - N/A   Clear